Other Public Products
Issued by NWS Grand Forks, ND

Home | Current Version | Previous Version | Text Only | Print | Product List | Glossary On
Versions: 1 2 3 4 5 6 7 8 9 10 11 12 13 14 15 16 17 18 19 20 21 22 23 24 25 26 27 28 29 30 31 32 33 34 35 36 37 38 39 40 41 42 43 44 45 46 47 48 49 50
000
FPUS83 KFGF 301431
OPUFGF
PRAIRIE TO PINES WEATHER ROUNDUP
NATIONAL WEATHER SERVICE EASTERN NORTH DAKOTA/GRAND FORKS ND
900 AM CDT SUN AUG 30 2015

 **SATELLITE DATA USED TO AUGMENT SKY COVER AT AUTOMATED STATIONS**
 *****  WEATHER ACROSS EASTERN NORTH DAKOTA  *****

CITY           SKY/WX    TMP DP  RH WIND       PRES   REMARKS
GRAND FORKS    PTSUNNY   66  63  88 S15         N/A
GRAND FORKS AF CLOUDY    66  66 100 S16       29.77S
GRAND CITY NWS   N/A     64 N/A N/A S21         N/A
BUXTON         NOT AVBL
DEVILS LAKE    SUNNY     72  61  68 S9        29.73S
FARGO          SUNNY     67  62  84 S15       29.83S
WAHPETON ARPT  SUNNY     64  59  82 SE10      29.87S
$$

 *****  WEATHER ACROSS CENTRAL AND WESTERN NORTH DAKOTA  *****

CITY           SKY/WX    TMP DP  RH WIND       PRES   REMARKS
JAMESTOWN      MOSUNNY   66  64  93 S13       29.79S
BISMARCK       MOSUNNY   70  62  76 SE8       29.73F
MINOT          CLOUDY    72  59  63 SE5       29.65F
MINOT AFB      CLOUDY    64  64  99 CALM      29.64F
GARRISON         N/A     70  61  73 SE6       29.70F
WILLISTON      PTSUNNY   70  54  56 CALM      29.64F
DICKINSON      NOT AVBL
HETTINGER      PTSUNNY   70  49  47 VRB3      29.76S
$$

 *****  OTHER OBSERVATIONS NORTHEAST NORTH DAKOTA  *****

CITY           SKY/WX    TMP DP  RH WIND       PRES   REMARKS
WALHALLA       FAIR      68  68 100 MISG      29.73F
LANGDON        FAIR      73  68  83 S8        29.75F
CAVALIER       FOG       66  66 100 S10       29.74F VSB 1/2
GRAFTON        CLOUDY    66  66 100 S14       29.77S
CANDO          FAIR      72  66  83 SE10      29.73F
FORT TOTTEN      N/A     69  65  85 S8        29.95S
ROLLA          FAIR      72  66  83 S8        29.74S
RUGBY          FAIR      72  64  78 SE7       29.70S
 ***** THE ABOVE OBSERVATIONS ARE NON NWS ARE NOT QUALITY
        CONTROLLED AND MAY MIS-REPORT RAIN FOR SNOW...
$$

 *****  OTHER OBSERVATIONS SOUTHEAST NORTH DAKOTA *****

CITY           SKY/WX    TMP DP  RH WIND       PRES   REMARKS
COOPERSTOWN    NOT AVBL
VALLEY CITY    FAIR      66  66 100 S10       29.81S
OAKES            N/A     68  66  94 S14       29.83F
GWINNER        FAIR      72  66  83 S13       29.84S
SHEYENNE NWR     N/A     65  64  96 S7        29.95S
BUFFALO        NOT AVBL
WYNDMERE         N/A     66  64  94 SE8         N/A
 ***** THE ABOVE OBSERVATIONS ARE NON NWS ARE NOT QUALITY
       CONTROLLED AND MAY MIS-REPORT RAIN FOR SNOW...
$$

  *****  WEATHER ACROSS NORTHERN MINNESOTA  *****

CITY           SKY/WX    TMP DP  RH WIND       PRES   REMARKS
FLAG ISLAND    PTSUNNY   66  64  94 S5        29.80S
WARROAD        CLOUDY    68  64  88 SW8       29.81R
ROSEAU         CLOUDY    68  63  83 S8        29.80S
HALLOCK        CLOUDY    68  66  94 S14G20    29.76S
THF RVR FALLS  PTSUNNY  N/A N/A N/A S12       29.81F
HALSTAD        NOT AVBL
FOSSTON        MOSUNNY   70  63  78 S13       29.85F
BAUDETTE       PTSUNNY   68  64  87 SW7       29.82S
WASKISH        PTSUNNY   68  66  94 S5        29.84F
CROOKSTON      PTSUNNY   68  64  88 S15       29.81S
$$
  *****  WEATHER ACROSS CENTRAL AND WEST MINNESOTA  *****

CITY           SKY/WX    TMP DP  RH WIND       PRES   REMARKS
BEMIDJI        CLOUDY    64  63  94 S8        29.88S
PARK RAPIDS    MOSUNNY   67  61  81 S9        29.91S
WADENA         SUNNY     64  63  94 S9        29.91F FOG
DETROIT LAKES  SUNNY     66  63  88 S13       29.89F
MOORHEAD       SUNNY     66  63  88 S15       29.85S
FERGUS FALLS   SUNNY     64  64 100 S13       29.89S FOG
ELBOW LAKE     FAIR      64  62  94 S14G20    29.90S
MORRIS MN      SUNNY     64  63  94 S12       29.91S FOG
STAPLES        CLOUDY    63  61  94 S8        29.93S FOG
WHEATON        SUNNY     63  61  94 SE10      29.89F FOG
$$
  *****  WEATHER ELSEWHERE ACROSS MINNESOTA  *****

CITY           SKY/WX    TMP DP  RH WIND       PRES   REMARKS
DULUTH         MOSUNNY   66  60  81 SW12      29.95F
INTRNTL FALLS  CLOUDY    67  65  93 S8        29.85S
ELY            CLOUDY    63  59  88 SW10G17   29.91F
CLOQUET        MOSUNNY   66  61  82 SW8       29.95S
BRAINERD       CLOUDY    63  60  90 S12       29.95S
HIBBING        CLOUDY    64  61  90 S7        29.93F
ALEXANDRIA     MOSUNNY   65  62  90 S13       29.95S
SAINT CLOUD    CLOUDY    61  60  97 S10       29.97S
MINNEAPOLIS    CLOUDY    63  59  87 S9        30.00S
$$

  *****  WEATHER ACROSS SOUTH DAKOTA  *****

CITY           SKY/WX    TMP DP  RH WIND       PRES   REMARKS
SIOUX FALLS    CLOUDY    62  61  96 S12       29.99F FOG
BROOKINGS      CLOUDY    63  59  88 S13       29.98F
WATERTOWN      SUNNY     64  62  93 S15       29.92F
HURON          MOSUNNY   65  63  93 S15G24    29.89F
SISSETON         N/A     67  63  87 S7        29.86S
ABERDEEN       MOSUNNY   66  63  90 S13       29.85S
MITCHELL       MOSUNNY   65  64  97 S16       29.93F
PIERRE         MOSUNNY   72  56  57 SE10      29.82S
MOBRIDGE       PTSUNNY   70  62  76 SE14      29.77F
RAPID CITY     SUNNY     67  51  56 SE6       29.84S
$$

  *****  SOME WEATHER IN NEARBY STATES *****

CITY           SKY/WX    TMP DP  RH WIND       PRES   REMARKS
GLASGOW MT     PTSUNNY   73  46  38 N16       29.69S HAZE
GREAT FALLS MT CLOUDY    62  51  67 S8        29.82F HAZE
CHEYENNE WY    SUNNY     68  40  35 W9        30.14S
SCOTTSBLUFF NE SUNNY     64  48  56 E5        29.99R
OMAHA NE       CLOUDY    64  61  90 S8        30.06R FOG
DES MOINES IA  DRZL/FOG  64  62  93 S3        30.06R VSB 1/8
DAVENPORT IA   CLOUDY    64  64 100 E5        30.09R FOG
CHICAGO IL     CLOUDY    67  63  87 CALM      30.07S FOG
EAU CLAIRE WI  SUNNY     64  60  87 S7        30.03F
LA CROSSE WI   CLOUDY    62  61  96 SE6       30.06S FOG
$$

  *****  SOME NATIONAL WEATHER *****

CITY           SKY/WX    TMP DP  RH WIND       PRES   REMARKS
LA GUARDIA NY  MOSUNNY   79  64  60 NW3       30.10S
RALEIGH NC     PTSUNNY   77  62  59 SW5       30.18R
ATLANTA GA     RAIN      66  64  94 CALM      30.15R FOG
NEW ORLEANS LA MOSUNNY   82  69  64 N5        30.04S
OKLAHOMA CITY  MOSUNNY   71  65  81 N5        30.02R
ALBUQUERQUE NM MOSUNNY   67  51  56 N7        30.25R
SALT LAKE CITY PTSUNNY   75  50  41 NW9       29.97R
LOS ANGELES CA PTCLDY    72  67  84 NE5       29.89R
BOISE ID       CLEAR     59  44  57 CALM      29.97R
SEATTLE WA     RAIN      56  54  93 S9        29.83R
$$

*** WEATHER ACROSS MANITOBA...SASKATCHEWAN AND ONTARIO ***
                ***ONTARIO***

CITY           SKY/WX    TMP DP  RH WIND       PRES   REMARKS
GERALDTON      CLOUDY    64  61  88 S14       29.82F FOG
THUNDER BAY    MOSUNNY   61  59  94 VRB2      29.87F
SIOUX LOOKOUT  CLOUDY    68  64  88 SW8       29.81S
TORONTO        PTSUNNY   70  61  73 N5        30.09S
BIG TROUT LK   MOSUNNY   70  63  78 NW8       29.61R
PICKLE LAKE    CLOUDY    70  64  83 W12       29.71S
DRYDEN         CLOUDY    68  63  83 SW14      29.82S
KENORA         FOG       66  64  94 SW12      29.81S VSB 1
$$
                *** MANITOBA***

CITY           SKY/WX    TMP DP  RH WIND       PRES   REMARKS
BRANDON        CLOUDY    66  63  88 E10       29.69S SMOKE
DAUPHIN        MOSUNNY   63  57  82 NE5       29.69F
ISLAND LAKE    CLOUDY    61  57  88 N9        29.74R
PILOT MOUND      N/A     70  66  88 S10         N/A
THE PAS        CLOUDY    61  57  88 E9G17     29.69S
THOMPSON       PTSUNNY   48  45  87 NE10      29.82R
WINNIPEG       PTSUNNY   70  68  94 S8        29.73S
LYNN LAKE      CLOUDY    50  48  93 MISG      29.76F
CHURCHILL      PTSUNNY   50  46  87 E12       29.90R
$$
                ***SASKATCHEWAN***

CITY           SKY/WX    TMP DP  RH WIND       PRES   REMARKS
ESTEVAN        CLOUDY    70  59  68 SE6       29.63F SMOKE
KINDERSLEY     MOSUNNY   59  41  51 S8        29.63S
LLOYDMINSTER   MOSUNNY   57  45  62 SW12      29.52S
PRINCE ALBERT  CLOUDY    61  59  94 E5        29.55F
REGINA         CLOUDY    66  54  63 VRB2      29.65S SMOKE
YORKTON        SUNNY     68  55  64 S5        29.65R



USA.gov is the U.S. government's official web portal to all federal, state and local government web resources and services.